Weather in Lelystad

Netherlands     52°30′53″N   5°28′38″E
temp.,
°C
wind,
m/s
gust,
m/s
humid.,
%
clouds,
%
prec.,
mm/h
press.,
hPa
HPBL,
m
23 april, fri
fri2323:00+6n57755 0.0 1028425
02:00+5n45745 0.0 1029381
05:00+5n34746 0.0 1029384
08:00+6n34705 0.0 1030461
11:00+8nnw45605 0.0 1030766
14:00+8nnw556143 0.0 1030559
17:00+8nnw55625 0.0 1029427
20:00+8n57695 0.0 1029258
24 april, sat
sat2423:00+6nne567865 0.0 1030251
02:00+5ne3482100 0.0 1029159
05:00+4ne3481100 0.0 1029172
08:00+6nne3580100 0.0 1029309
11:00+8nne4570100 0.0 1029746
14:00+9nnw6664100 0.0 1028930
17:00+10n7761100 0.0 10281021
20:00+7nne786999 0.0 1028656
25 april, sun
sun2523:00+5nne68785 0.0 1029452
02:00+4nne58815 0.0 1029422
05:00+3nne58825 0.0 1029444
08:00+4ne57785 0.0 1028517
11:00+7nne456531 0.0 1029868
14:00+9nnw6661100 0.0 1027837
17:00+9n77607 0.0 1026804
20:00+8nne676531 0.0 1025589
26 april, mon
mon2623:00+5ne57812 0.0 1025368
02:00+4ne478818 0.0 1024363
05:00+6nne4676100 0.0 1022644
08:00+6ne4580100 0.0 1022384
11:00+8ne457196 0.0 1021734
14:00+9nne4572100 0.0 1019759
17:00+9nne4569100 0.0 1017891
20:00+9ne5772100 0.0 1015629
27 april, tue
tue2723:00+8ne5770100 0.0 1014586
02:00+6ne5885100 0.0 1013322
05:00+6ne5786100 0.0 1011315
08:00+6ne5779100 0.0 1011285
11:00+9ne5665100 0.0 1010632
14:00+12ne675595 0.0 1008881
17:00+12ne5653100 0.0 1007953
20:00+10ne586297 0.0 1007247